RH
45 36 32 28 23 18 15 23 32 36 38 37 35 27 29 26 30 25 24 19 18 20 39 34 37 50 63 63 66 56 46 37 23 20 19 21 19 21 29 36 41 31 56 20 17
66 54 51 50 41 40 33 27 28 40 46 57 50 40 42 32 39 32 32 22 22 26 33 52 54 39 50 42 60 51 40 32 25 20 21 22 18 26 35 47 36 36 30 26 29
76 75 69 60 67 68 49 50 36 31 36 69 66 61 54 38 35 43 42 30 31 32 41 62 50 47 36 50 46 44 32 30 26 30 36 29 24 29 36 35 29 37 27 29 35
93 95 94 94 87 91 100 100 71 45 48 56 70 82 92 74 48 40 50 46 39 33 29 39 45 39 48 69 56 68 72 84 42 44 67 40 48 54 71 41 29 23 26 32 46
78 94 100 100 100 100 94 99 100 100 87 83 100 100 100 96 84 56 62 66 54 43 31 23 50 48 44 50 75 92 90 100 65 68 63 48 50 51 44 37 32 31 42 56 77
83 89 92 97 100 100 100 100 100 100 100 100 100 100 100 100 100 90 72 78 64 54 41 24 28 48 57 88 90 80 100 99 91 94 100 90 59 46 46 99 62 71 81 88 82
82 89 88 82 88 90 96 97 100 100 100 100 100 100 100 100 100 100 87 98 79 69 36 32 25 53 65 62 56 52 72 92 100 95 99 71 56 62 60 74 98 93 93 92 100
82 85 88 86 86 91 89 94 100 100 100 100 100 100 100 100 100 98 100 100 100 81 47 44 37 51 72 72 69 84 66 93 86 84 66 58 61 76 73 72 85 97 93 100 86
87 90 92 90 92 90 94 94 98 100 100 100 100 100 100 100 100 100 100 100 100 88 69 54 53 66 72 80 91 76 67 52 58 64 73 79 82 86 93 96 93 95 98 95 87
99 97 86 92 95 88 93 94 93 76 79 83 75 68 68 88 94 95 100 100 95 90 83 82 53 46 60 87 100 100 100 93 76 83 87 100 92 82 82 86 97 99 100 100 100
70 71 57 64 69 55 51 54 58 63 60 81 98 97 89 77 84 80 87 100 100 95 82 79 83 80 88 93 97 100 100 100 100 92 93 93 86 86 98 100 97 100 100 100 98
100 84 83 70 69 70 74 64 66 66 91 72 80 83 74 73 91 84 74 79 86 99 97 88 89 96 100 100 100 100 100 99 100 100 100 100 100 100 100 100 100 100 100 100 98
98 86 80 85 96 100 100 100 91 84 79 82 81 80 68 63 78 84 87 80 89 86 86 96 89 82 71 69 78 78 82 95 89 100 100 100 100 98 100 100 100 100 100 100 100
100 100 100 95 98 98 70 56 43 46 54 68 80 82 74 74 76 77 86 80 74 84 87 88 93 99 100 89 94 100 99 100 100 100 100 100 100 100 100 100 100 100 100 98 100
79 74 65 94 81 64 48 44 44 37 30 28 39 43 45 50 53 48 62 61 60 72 84 93 95 99 99 100 100 100 100 100 100 100 100 100 100 100 100 100 100 100 93 96 94
72 72 62 71 52 49 49 50 46 39 33 48 46 55 45 47 45 51 64 88 96 88 84 95 98 99 100 100 100 99 100 100 100 100 100 100 100 100 100 100 98 92 85 89 82
100 99 76 73 69 76 74 66 59 48 63 73 79 88 71 61 58 38 52 41 34 37 55 49 76 94 90 97 100 100 98 100 100 100 96 100 100 100 100 100 100 99 99 97 97
100 100 94 89 86 80 78 71 67 76 91 82 97 99 90 93 82 73 87 86 94 85 99 97 85 81 99 97 98 100 100 100 100 100 100 100 100 100 100 100 100 99 63 66 74
100 100 100 100 100 100 100 83 81 95 100 91 100 100 98 100 100 97 96 92 100 100 100 88 95 91 100 100 100 97 100 100 94 81 73 74 97 81 85 100 100 78 82 79 82
100 100 100 100 100 100 100 97 98 100 100 100 100 100 100 100 90 100 100 96 100 100 100 100 100 100 91 81 79 64 90 88 87 63 68 67 77 100 91 100 99 100 80 74 74
80 88 86 96 100 95 88 99 99 100 100 100 100 100 100 100 100 100 98 100 100 100 100 100 100 100 100 100 96 94 93 92 97 100 100 98 100 68 74 88 85 75 69 100 77
73 65 80 88 73 92 100 99 100 84 100 100 100 100 100 94 97 100 100 80 83 100 100 100 100 100 88 79 100 100 100 100 100 100 100 100 99 100 100 100 94 90 100 79 58
100 100 100 100 100 100 100 87 100 98 99 100 100 100 100 100 100 100 99 99 99 100 90 100 94 98 100 87 71 96 100 81 51 48 52 41 50 77 71 63 70 100 61 64 79
100 100 100 100 100 100 100 100 100 100 98 97 100 100 100 100 100 100 93 92 78 90 100 100 100 100 100 100 100 75 85 68 60 60 66 60 49 80 59 72 62 63 72 78 84
88 100 100 100 100 88 79 100 91 100 97 86 86 100 100 100 100 89 96 95 75 63 62 67 86 87 100 100 98 96 59 80 68 61 75 63 72 67 65 55 56 67 72 86 57
75 86 100 100 100 100 90 100 100 77 100 100 97 91 87 100 100 100 100 100 97 86 100 48 53 35 58 78 47 52 77 76 84 94 100 99 86 100 91 81 88 76 69 70 80
48 80 100 100 100 100 98 80 72 69 76 100 97 81 74 95 100 100 97 95 98 100 100 100 92 84 50 69 70 50 71 96 96 90 97 89 84 100 95 100 100 100 99 86 83
Wind_Speed
15 17 17 19 16 16 15 14 15 17 20 22 23 25 27 26 27 25 24 20 20 23 23 24 25 18 17 16 16 11 11 15 20 21 21 19 22 27 28 30 30 38 38 45 47
17 19 19 19 18 17 18 19 19 19 22 23 23 27 29 28 28 26 27 22 19 21 23 27 28 14 14 11 10 11 14 18 18 20 23 25 25 26 30 27 34 37 42 49 49
20 19 20 21 22 19 20 22 24 24 22 23 25 27 29 29 29 26 28 27 25 25 25 26 20 16 11 12 10 14 17 20 20 22 27 28 29 30 34 35 36 40 46 49 54
24 23 23 22 25 23 22 24 25 26 25 25 26 30 31 31 29 29 25 29 29 24 23 24 18 9 7 10 13 16 18 20 26 23 26 25 28 30 32 40 45 45 48 52 56
27 26 24 25 25 27 27 28 29 29 29 29 31 30 32 32 30 31 31 28 30 27 26 21 15 8 8 13 15 21 21 18 26 28 29 27 30 34 36 44 47 47 48 53 54
32 31 29 28 27 28 29 28 28 30 30 31 32 33 30 30 31 34 34 29 29 29 28 20 15 16 14 13 16 19 21 21 26 28 32 35 34 36 38 40 47 48 52 56 56
36 34 33 33 32 31 32 31 31 31 33 33 34 34 32 34 35 39 39 33 32 31 25 20 12 18 19 20 23 22 21 23 28 30 34 36 35 38 39 41 47 51 53 56 53
41 41 39 37 36 36 36 35 36 36 38 39 38 36 37 37 40 43 41 31 30 31 26 21 19 21 22 24 24 27 27 28 31 33 38 40 41 40 43 46 49 53 56 56 57
44 44 41 41 40 39 41 40 40 42 40 39 38 39 38 38 39 40 35 30 28 30 31 30 25 25 28 31 31 33 34 32 34 37 43 45 45 47 47 49 52 54 55 56 59
42 41 40 41 41 41 42 42 42 42 40 40 41 41 37 36 35 36 38 36 32 30 32 33 34 34 37 38 37 37 39 39 40 45 48 52 51 52 53 53 52 53 55 57 60
46 45 42 42 42 42 42 43 42 44 41 39 40 40 41 37 38 40 38 37 35 36 35 37 38 40 43 45 45 47 51 49 49 50 52 58 59 55 55 54 56 56 58 63 65
43 43 41 40 41 43 42 43 44 45 45 45 45 43 42 41 40 39 39 38 38 38 40 41 40 42 41 44 47 49 52 53 54 56 58 58 53 54 57 59 60 63 66 71 76
49 47 45 44 45 45 47 44 44 45 46 49 48 47 46 44 40 39 38 37 38 39 39 42 45 47 49 51 52 53 52 53 53 55 54 53 53 56 58 60 63 67 70 69 68
52 51 50 50 46 45 43 45 44 44 42 47 45 45 47 45 42 39 39 40 39 41 41 41 42 47 50 52 53 53 48 46 50 51 51 55 52 55 60 64 64 66 68 69 68
47 47 49 50 49 51 46 44 42 44 38 34 35 35 41 44 43 43 40 40 39 39 40 42 43 46 47 49 48 46 45 46 47 47 47 50 54 59 64 67 68 69 73 72 72
55 54 51 50 49 47 49 50 45 44 42 42 45 45 39 37 43 47 42 43 41 40 39 39 40 41 45 45 45 46 46 46 47 51 54 54 61 67 72 74 77 77 81 83 84
60 60 57 54 55 52 54 54 53 49 50 46 48 47 44 43 41 40 45 42 44 45 45 45 45 44 44 48 51 55 61 57 54 66 65 63 74 71 76 82 87 87 90 91 88
65 60 58 59 59 60 59 58 53 51 58 56 52 50 48 46 45 45 44 41 45 44 46 46 46 53 57 62 61 66 67 67 70 72 72 74 75 78 82 88 93 97 91 91 89
71 68 63 64 68 69 66 60 55 56 58 62 61 57 52 54 55 53 50 51 52 52 53 54 55 57 59 62 64 67 68 72 78 81 81 79 80 85 89 95 98 95 97 91 88
75 71 68 69 71 71 68 60 63 62 61 68 67 64 58 59 59 60 59 54 56 57 57 58 62 62 65 68 71 73 77 82 83 87 87 86 85 85 87 92 95 99 100 101 106
80 75 68 75 78 76 70 65 68 69 69 70 70 69 66 65 66 65 62 65 65 64 66 70 70 68 66 70 75 78 80 81 86 88 92 90 89 87 94 99 102 102 102 106 102
83 83 79 81 81 81 77 75 69 69 76 74 74 70 67 68 68 66 64 71 70 73 74 72 75 71 76 75 75 80 81 88 93 94 90 96 89 96 99 107 106 107 110 110 114
92 88 84 85 87 86 85 80 80 74 79 82 81 80 77 76 77 74 74 77 79 79 79 75 74 79 80 80 80 86 89 95 98 95 94 102 94 99 106 110 109 110 116 115 118
101 98 92 91 94 93 91 89 86 84 86 86 84 84 84 87 87 84 87 85 88 89 88 90 94 92 89 91 98 97 91 95 100 101 100 100 100 103 109 112 113 114 114 116 118
107 106 102 101 100 103 103 100 96 95 93 88 88 90 91 94 95 92 92 90 93 95 102 105 101 98 97 97 104 100 98 104 105 107 113 108 112 109 110 116 118 125 124 123 124
106 110 111 113 107 104 103 103 101 101 97 100 102 99 97 97 102 102 100 97 99 101 101 100 102 104 97 103 103 101 104 107 113 115 118 121 114 120 121 125 128 131 131 129 130
115 113 115 117 117 112 109 106 109 109 108 104 103 104 104 106 106 109 109 110 109 110 108 109 110 113 112 115 117 111 108 114 120 121 127 130 125 123 127 126 128 135 136 135 126
Wind_Direction
310 312 309 311 309 305 304 308 313 319 318 322 331 339 343 341 347 348 348 339 344 338 345 340 341 340 338 345 339 337 337 353 4 15 13 17 4 3 8 8 7 6 1 0 8
297 299 298 298 301 299 298 296 298 301 313 314 317 323 330 336 338 342 340 336 342 332 332 334 333 344 345 347 351 3 350 359 3 359 358 357 355 4 2 359 358 358 359 1 4
282 281 282 288 291 288 291 290 294 295 304 309 309 313 319 324 333 342 331 330 329 326 328 329 333 337 4 11 4 352 342 346 349 350 351 353 352 352 356 357 353 354 355 356 358
282 279 277 278 282 285 288 291 293 294 295 293 303 305 311 313 320 327 326 328 326 324 326 321 315 325 332 1 359 350 349 336 348 352 350 347 349 349 347 351 348 346 349 349 349
280 281 282 282 281 283 281 287 290 290 291 294 301 305 303 303 307 316 322 314 321 317 316 311 301 270 306 330 344 344 339 327 335 338 336 338 339 340 342 343 342 344 341 340 340
272 273 274 278 280 282 284 286 286 290 294 296 297 300 304 308 304 311 315 309 309 311 308 300 277 263 300 318 328 331 329 331 329 327 325 326 334 335 335 330 337 339 338 336 336
276 275 274 271 277 276 282 282 282 284 286 288 295 297 297 307 302 304 308 303 302 309 298 292 260 249 283 307 308 311 315 317 320 316 315 313 321 324 328 327 329 331 331 330 331
266 269 272 275 276 280 281 286 285 285 287 288 289 292 295 301 304 302 300 294 296 300 289 276 258 277 290 294 305 314 309 309 308 310 312 314 320 318 319 322 323 325 326 327 327
267 268 268 269 273 276 280 282 282 282 285 290 294 295 294 297 294 296 295 292 291 289 284 270 261 268 280 296 306 310 306 299 309 312 315 312 311 314 317 319 320 321 322 321 322
263 263 265 268 269 271 274 274 277 280 281 281 283 283 285 290 291 292 296 292 288 280 276 272 266 279 285 294 301 302 309 307 304 311 310 316 311 311 314 315 314 315 316 317 319
260 258 264 265 268 271 270 273 274 276 275 277 281 282 283 283 283 288 292 293 287 290 272 266 269 275 280 289 292 294 299 301 302 307 312 312 312 310 309 310 314 314 314 315 316
257 259 260 265 266 268 270 271 275 276 277 276 275 279 282 284 286 285 287 288 286 286 282 272 267 274 284 293 297 299 299 300 302 303 304 307 306 308 311 312 313 313 314 316 318
256 259 260 262 262 264 268 269 272 273 275 275 278 281 283 283 283 285 286 286 286 287 285 282 277 280 285 285 290 297 300 301 303 302 302 301 306 307 309 311 312 313 314 315 318
256 260 265 265 260 260 264 268 274 272 275 277 276 280 283 282 282 285 286 288 290 290 290 287 285 287 290 292 292 294 300 299 296 298 302 305 306 305 308 310 312 311 311 312 317
259 261 264 262 262 264 265 268 272 276 278 281 281 284 286 282 282 284 287 288 289 291 291 290 291 291 292 294 296 293 292 293 299 301 304 305 306 310 310 312 310 308 307 309 309
255 259 261 259 258 261 267 271 269 274 277 283 281 287 288 287 290 285 287 288 288 290 294 298 295 292 291 294 299 301 301 298 298 302 303 303 313 314 314 311 307 306 308 309 309
259 258 257 253 257 262 268 269 273 278 278 281 275 276 279 277 289 284 290 293 291 290 293 297 297 295 293 299 299 302 306 300 298 303 306 304 310 310 311 309 307 306 306 308 310
258 260 256 257 256 259 261 263 270 275 279 278 275 273 273 273 279 280 279 280 292 281 287 288 290 297 298 300 301 303 303 303 302 304 305 306 308 307 306 306 306 308 311 309 311
259 258 256 256 260 262 263 262 264 269 274 271 276 273 276 277 280 280 278 280 283 281 283 287 290 295 297 296 295 295 299 301 301 300 298 300 300 303 303 301 302 305 308 309 310
260 260 260 263 265 267 270 274 267 264 266 269 274 271 272 275 278 277 278 278 277 276 282 284 286 290 289 291 289 292 295 298 301 301 300 301 302 303 303 303 302 303 308 312 313
258 260 263 264 264 266 271 269 267 268 267 267 269 271 271 273 274 277 280 277 273 272 277 281 283 287 289 290 293 292 294 296 297 301 301 303 305 305 301 304 303 307 308 309 311
260 258 261 261 262 268 274 275 267 265 269 268 265 267 268 270 270 271 274 275 276 276 279 279 280 284 288 289 293 294 294 298 298 299 300 303 306 305 304 306 306 306 309 309 310
259 258 260 263 265 267 270 272 273 271 268 269 265 264 267 270 272 274 274 277 280 280 279 278 280 282 288 289 289 292 291 293 297 299 304 301 303 301 301 302 303 306 307 308 306
263 260 259 260 265 268 269 270 270 272 274 272 268 265 266 269 271 272 273 273 275 276 280 281 283 284 286 285 287 292 289 290 294 296 297 305 305 302 302 300 302 305 306 305 305
257 260 260 257 262 265 267 269 269 270 271 271 271 268 269 270 270 269 270 270 272 277 278 277 277 278 282 281 282 284 288 288 293 296 297 300 302 302 301 303 304 306 307 306 306
258 261 260 262 261 264 266 267 269 271 271 271 274 272 270 271 268 271 273 272 274 275 277 278 279 276 277 279 282 284 290 292 292 295 295 296 303 299 302 303 305 306 306 305 305
255 255 260 259 264 265 265 267 270 269 271 270 273 273 275 274 270 269 267 269 273 275 278 280 282 284 282 283 286 288 291 292 293 293 296 297 298 298 299 299 300 302 303 303 302